• In India
  • List of Countries
  • For 7 days
  • Water Temperature
  • Satellite Maps
  • Weather Map
  • Weather Widgets
  • user-avatar
    Login

    Hourly Weather Lesniczowka

    Today, 24 September, Monday

    Time Temperature Precipitation Wind Pressure Humidity
    00:00 +12°C° 1.5 mm 7 mps 729 mmHg 73%
    01:00 +13°C° 0 mm 4 mps 727 mmHg 83%
    02:00 +13°C° 0.4 mm 6 mps 728 mmHg 83%
    03:00 +12°C° 0.4 mm 9 mps 728 mmHg 83%
    04:00 +12°C° 0.4 mm 12 mps 729 mmHg 82%
    05:00 +11°C° 0.1 mm 11 mps 730 mmHg 82%
    06:00 +8°C° 0.1 mm 10 mps 732 mmHg 82%
    07:00 +6°C° 0 mm 10 mps 734 mmHg 81%
    08:00 +7°C° 0.2 mm 10 mps 735 mmHg 79%
    09:00 +7°C° 0.2 mm 9 mps 736 mmHg 77%
    10:00 +7°C° 0.2 mm 9 mps 737 mmHg 75%
    11:00 +7°C° 0.1 mm 9 mps 738 mmHg 73%
    12:00 +8°C° 0.1 mm 10 mps 738 mmHg 71%
    13:00 +8°C° 0.1 mm 10 mps 738 mmHg 69%
    14:00 +8°C° 0 mm 9 mps 739 mmHg 67%
    15:00 +8°C° 0 mm 9 mps 739 mmHg 66%
    16:00 +7°C° 0 mm 8 mps 740 mmHg 65%
    17:00 +7°C° 0.1 mm 8 mps 740 mmHg 68%
    18:00 +8°C° 0.1 mm 7 mps 740 mmHg 71%
    19:00 +7°C° 0.1 mm 6 mps 741 mmHg 74%
    20:00 +7°C° 0.1 mm 6 mps 741 mmHg 74%
    21:00 +7°C° 0.1 mm 6 mps 742 mmHg 74%
    22:00 +5°C° 0.1 mm 6 mps 742 mmHg 74%
    23:00 +5°C° 0 mm 6 mps 742 mmHg 74%

    Tomorrow, 25 September, Tuesday

    Time Temperature Precipitation Wind Pressure Humidity
    00:00 +5°C° 0 mm 6 mps 743 mmHg 74%
    01:00 +5°C° 0 mm 5 mps 743 mmHg 74%
    02:00 +5°C° 0 mm 5 mps 744 mmHg 75%
    03:00 +3°C° 0 mm 5 mps 744 mmHg 75%
    04:00 +3°C° 0 mm 5 mps 745 mmHg 76%
    05:00 +4°C° 0 mm 6 mps 745 mmHg 75%
    06:00 +4°C° 0 mm 6 mps 746 mmHg 73%
    07:00 +4°C° 0 mm 6 mps 747 mmHg 72%
    08:00 +6°C° 0 mm 7 mps 747 mmHg 66%
    09:00 +8°C° 0 mm 7 mps 748 mmHg 60%
    10:00 +10°C° 0 mm 7 mps 748 mmHg 54%
    11:00 +10°C° 0.2 mm 8 mps 749 mmHg 54%
    12:00 +10°C° 0.2 mm 8 mps 749 mmHg 54%
    13:00 +10°C° 0.2 mm 8 mps 749 mmHg 54%
    14:00 +10°C° 0.1 mm 7 mps 749 mmHg 55%
    15:00 +9°C° 0.1 mm 7 mps 750 mmHg 57%
    16:00 +9°C° 0.1 mm 6 mps 750 mmHg 59%
    17:00 +8°C° 0 mm 6 mps 751 mmHg 62%
    18:00 +7°C° 0 mm 5 mps 751 mmHg 66%
    19:00 +6°C° 0 mm 4 mps 752 mmHg 70%
    20:00 +5°C° 0 mm 4 mps 752 mmHg 70%
    21:00 +5°C° 0 mm 4 mps 753 mmHg 71%
    22:00 +4°C° 0 mm 3 mps 753 mmHg 72%
    23:00 +4°C° 0 mm 3 mps 754 mmHg 74%

    Day after tomorrow, 26 September, Wednesday

    Time Temperature Precipitation Wind Pressure Humidity
    00:00 +3°C° 0 mm 3 mps 754 mmHg 75%
    01:00 +3°C° 0 mm 3 mps 754 mmHg 77%
    02:00 +4°C° 0 mm 2 mps 754 mmHg 78%
    03:00 +3°C° 0 mm 2 mps 754 mmHg 79%
    04:00 +3°C° 0 mm 2 mps 754 mmHg 79%
    05:00 +4°C° 0 mm 2 mps 755 mmHg 75%
    06:00 +5°C° 0 mm 2 mps 755 mmHg 71%
    07:00 +5°C° 0 mm 2 mps 755 mmHg 66%
    08:00 +7°C° 0 mm 3 mps 755 mmHg 59%
    09:00 +9°C° 0 mm 3 mps 755 mmHg 53%
    10:00 +11°C° 0 mm 4 mps 755 mmHg 46%
    11:00 +12°C° 0 mm 4 mps 754 mmHg 45%
    12:00 +12°C° 0 mm 5 mps 754 mmHg 44%
    13:00 +13°C° 0 mm 5 mps 753 mmHg 43%
    14:00 +13°C° 0 mm 4 mps 752 mmHg 45%
    15:00 +13°C° 0 mm 4 mps 752 mmHg 46%
    16:00 +12°C° 0 mm 4 mps 751 mmHg 48%
    17:00 +12°C° 0 mm 4 mps 751 mmHg 49%
    18:00 +11°C° 0 mm 4 mps 751 mmHg 50%
    19:00 +10°C° 0 mm 4 mps 751 mmHg 51%
    20:00 +10°C° 0 mm 4 mps 751 mmHg 50%
    21:00 +10°C° 0 mm 5 mps 750 mmHg 49%
    22:00 +10°C° 0 mm 5 mps 750 mmHg 49%
    23:00 +10°C° 0 mm 5 mps 749 mmHg 49%

    27 September, Thursday

    Time Temperature Precipitation Wind Pressure Humidity
    00:00 +10°C° 0 mm 6 mps 749 mmHg 49%
    01:00 +10°C° 0 mm 6 mps 749 mmHg 49%
    02:00 +10°C° 0 mm 6 mps 748 mmHg 49%
    03:00 +10°C° 0 mm 6 mps 748 mmHg 48%
    04:00 +10°C° 0 mm 6 mps 748 mmHg 48%
    05:00 +10°C° 0 mm 6 mps 748 mmHg 49%
    06:00 +10°C° 0 mm 7 mps 748 mmHg 51%
    07:00 +10°C° 0 mm 7 mps 747 mmHg 52%
    08:00 +12°C° 0 mm 7 mps 747 mmHg 52%
    09:00 +14°C° 0 mm 7 mps 747 mmHg 53%
    10:00 +16°C° 0 mm 7 mps 747 mmHg 53%
    11:00 +17°C° 0 mm 7 mps 747 mmHg 54%
    12:00 +18°C° 0 mm 7 mps 747 mmHg 54%
    13:00 +20°C° 0 mm 7 mps 747 mmHg 54%
    14:00 +20°C° 0 mm 6 mps 746 mmHg 57%
    15:00 +19°C° 0 mm 6 mps 746 mmHg 60%
    16:00 +19°C° 0 mm 5 mps 746 mmHg 62%
    17:00 +17°C° 0 mm 5 mps 746 mmHg 66%
    18:00 +17°C° 0 mm 4 mps 746 mmHg 70%
    19:00 +16°C° 0 mm 3 mps 746 mmHg 74%
    20:00 +16°C° 0 mm 3 mps 746 mmHg 76%
    21:00 +14°C° 0 mm 3 mps 746 mmHg 78%
    22:00 +14°C° 0 mm 3 mps 746 mmHg 80%
    23:00 +13°C° 0 mm 3 mps 745 mmHg 83%

    28 September, Friday

    Time Temperature Precipitation Wind Pressure Humidity
    00:00 +13°C° 0 mm 3 mps 745 mmHg 87%
    01:00 +12°C° 0 mm 3 mps 745 mmHg 91%
    02:00 +12°C° 0 mm 3 mps 744 mmHg 90%
    03:00 +11°C° 0 mm 3 mps 744 mmHg 90%
    04:00 +11°C° 0 mm 4 mps 744 mmHg 90%
    05:00 +12°C° 0 mm 4 mps 743 mmHg 85%
    06:00 +13°C° 0 mm 4 mps 743 mmHg 81%
    07:00 +13°C° 0 mm 5 mps 743 mmHg 76%
    08:00 +15°C° 0 mm 5 mps 743 mmHg 69%
    09:00 +17°C° 0 mm 5 mps 743 mmHg 62%
    10:00 +20°C° 0 mm 5 mps 743 mmHg 55%
    11:00 +21°C° 0 mm 5 mps 742 mmHg 53%
    12:00 +21°C° 0 mm 5 mps 742 mmHg 50%
    13:00 +22°C° 0 mm 5 mps 742 mmHg 47%
    14:00 +22°C° 0 mm 5 mps 742 mmHg 49%
    15:00 +21°C° 0 mm 4 mps 742 mmHg 52%
    16:00 +20°C° 0 mm 3 mps 741 mmHg 55%
    17:00 +19°C° 0 mm 3 mps 741 mmHg 60%
    18:00 +17°C° 0 mm 3 mps 742 mmHg 66%
    19:00 +16°C° 0 mm 2 mps 742 mmHg 71%
    20:00 +15°C° 0 mm 2 mps 742 mmHg 72%
    21:00 +14°C° 0 mm 2 mps 742 mmHg 74%
    22:00 +14°C° 0 mm 2 mps 742 mmHg 75%
    23:00 +14°C° 0 mm 2 mps 742 mmHg 73%

    29 September, Saturday

    Time Temperature Precipitation Wind Pressure Humidity
    00:00 +13°C° 0 mm 2 mps 742 mmHg 72%
    01:00 +12°C° 0 mm 3 mps 742 mmHg 70%
    02:00 +11°C° 0.3 mm 3 mps 742 mmHg 73%
    03:00 +10°C° 0.3 mm 3 mps 743 mmHg 75%
    04:00 +8°C° 0.3 mm 4 mps 743 mmHg 78%
    05:00 +9°C° 0.8 mm 3 mps 743 mmHg 80%
    06:00 +9°C° 0.8 mm 3 mps 744 mmHg 82%
    07:00 +8°C° 0.8 mm 3 mps 744 mmHg 83%
    08:00 +9°C° 0.1 mm 3 mps 745 mmHg 76%
    09:00 +10°C° 0.1 mm 3 mps 746 mmHg 69%
    10:00 +11°C° 0.1 mm 4 mps 746 mmHg 62%
    11:00 +12°C° 0 mm 4 mps 746 mmHg 57%
    12:00 +12°C° 0 mm 4 mps 746 mmHg 52%
    13:00 +13°C° 0 mm 4 mps 746 mmHg 48%
    14:00 +12°C° 0 mm 4 mps 746 mmHg 47%
    15:00 +12°C° 0 mm 4 mps 746 mmHg 46%
    16:00 +12°C° 0 mm 4 mps 747 mmHg 46%
    17:00 +10°C° 0 mm 3 mps 747 mmHg 49%
    18:00 +9°C° 0 mm 3 mps 747 mmHg 53%
    19:00 +7°C° 0 mm 2 mps 748 mmHg 56%
    20:00 +7°C° 0 mm 2 mps 748 mmHg 58%
    21:00 +6°C° 0 mm 2 mps 748 mmHg 60%
    22:00 +6°C° 0 mm 2 mps 749 mmHg 62%
    23:00 +5°C° 0 mm 2 mps 749 mmHg 64%
    Show more